Location: El Frutal
(10.4167°N, 67.1667°W)
Time: 10:01:00
(UTC+00:00)

Daily predictions for brighter satellites

Satellite Brightness Start Highest point End
(mag) Time Altitude Azimuth Time Altitude Azimuth Time Altitude Azimuth
CZ-4B DEB 4.3 22:16:59 10° SSE 22:22:25 58° ENE 22:27:49 10° N
Cosmos 1602 3.7 22:21:25 10° N 22:25:15 67° E 22:29:06 10° S
Cosmos 1937 Rocket 4.3 22:21:56 10° NNE 22:26:27 28° ENE 22:30:56 10° SE
CZ-2D R/B 3.4 22:23:55 10° SSE 22:27:39 49° ENE 22:31:21 10° N
Meteor 1-25 Rocket 4.3 22:23:22 10° N 22:28:59 88° E 22:34:41 10° S
Cosmos 1328 Rocket 3.5 22:27:02 10° S 22:31:26 77° E 22:35:51 10° N
Cosmos 990 Rocket 3.9 22:29:23 10° N 22:34:31 84° ENE 22:39:39 10° SSE
Meteor 2-21 4.4 22:29:41 10° N 22:35:40 66° E 22:41:38 10° SSE
Delta 2 Rocket 4.3 22:32:11 10° SSW 22:36:25 36° SE 22:40:00 11° ENE
Aureole 3 Rocket 4.2 22:34:48 10° ESE 22:36:37 14° E 22:38:31 10° NE
ARGOS 3.9 22:33:20 10° SE 22:38:00 30° ENE 22:42:39 10° NNE
GPS 2-12 Rocket1 3.3 22:34:32 10° WSW 22:38:56 56° SSE 22:42:59 12° E
Meteor 2-15 4.4 22:37:18 10° S 22:43:25 72° E 22:49:29 10° N
Centaur AC-69 3.4 22:39:45 10° WNW 22:43:32 31° N 22:45:13 15° ENE
Cosmos 1666 Rocket 4.0 22:41:02 10° NNE 22:45:09 39° E 22:49:12 10° SSE
Cosmos 2026 Rocket 4.1 22:42:41 10° N 22:48:44 78° W 22:54:46 10° S
PAYLOAD B 4.2 22:44:22 10° SSE 22:49:58 85° ENE 22:55:34 10° NNW
USA 234 4.4 22:46:57 10° E 22:51:36 21° NE 22:56:14 10° N
NOSS 3-3 (A) 3.6 22:48:05 10° SSW 22:53:24 68° ESE 22:58:54 10° NNE
NOSS 3-3 (C) 3.6 22:48:10 10° SSW 22:53:29 67° ESE 22:58:58 10° NNE
USA 229 DEB 4.3 22:46:50 10° N 22:54:10 44° ENE 23:01:38 10° SE
USA 229 4.3 22:46:57 10° N 22:54:16 44° ENE 23:01:41 10° SE
IRAS Rocket 4.3 22:49:08 10° NNE 22:54:34 60° ESE 23:00:02 10° S
Cosmos 2228 Rocket 4.5 22:51:36 10° SE 22:54:37 18° E 22:55:22 17° ENE
GPS 2-15 Rocket1 4.5 22:50:55 10° NW 22:54:44 25° N 22:57:18 16° NE
CZ-4B R/B 3.2 22:50:35 10° SSE 22:56:03 62° ENE 23:01:24 10° N
Meteosat 1 Rocket2 3.2 22:54:09 10° WSW 22:58:15 49° NNW 23:00:33 20° NE
Cosmos 858 Rocket 4.5 22:53:13 10° N 22:58:24 61° ENE 23:03:32 10° SSE
Cosmos 1500 3.7 22:54:51 10° NNW 22:58:31 61° W 23:02:10 10° S
Atlas Centaur 2 1.2 23:01:13 10° WNW 23:04:44 69° SSW 23:08:17 11° SE
DMSP B5D2-2 4.1 23:03:04 10° N 23:08:17 83° WNW 23:13:33 10° SSW
deb Chang Zheng 4 3.4 23:04:26 10° SSE 23:08:42 85° E 23:13:00 10° N
BLOCK DM-SL R/B 4.2 23:09:37 10° SSW 23:10:49 13° SSE 23:12:30 10° SE
Cosmos 1515 Rocket 4.1 23:08:16 10° SSW 23:12:40 61° W 23:17:03 10° N
CZ-4B R/B 3.4 23:14:37 14° SE 23:14:37 14° SE 23:15:14 10° SSE
Genesis I 3.1 23:11:17 10° SSW 23:15:00 61° ESE 23:16:18 36° NE
H-2A R/B 2.0 23:12:30 14° NNE 23:16:22 73° ESE 23:20:47 10° S
GPS 2-14 Rocket1 3.9 23:14:35 10° W 23:18:09 36° SSW 23:21:01 15° SE
NOSS 3-1 (A) 4.3 23:09:34 10° NNW 23:18:18 78° ENE 23:27:29 10° SSE
Sakura Rocket 3.3 23:13:23 10° NW 23:18:45 52° NNE 23:20:09 37° ENE
Cosmos 2360 4.3 23:15:17 10° NNW 23:20:58 78° WSW 23:26:39 10° SSE
H-2A R/B 3.7 23:21:09 10° SSW 23:26:02 37° WSW 23:30:49 10° NW
Meteor 1-11 Rocket 4.3 23:25:42 34° ENE 23:26:25 35° E 23:31:41 10° SSE
Cosmos 1666 3.7 23:24:33 10° NNW 23:28:06 46° W 23:31:40 10° SSW
Cosmos 2084 3.6 23:23:59 10° NNW 23:28:32 87° WSW 23:33:13 10° SSE
H-2A R/B 4.2 23:25:37 10° SSE 23:26:36 17° SE 23:26:36 17° SE
Cosmos 783 Rocket 4.4 23:27:18 10° S 23:32:32 66° ESE 23:34:18 40° NE
Cosmos 1515 3.5 23:33:05 10° S 23:36:50 89° ESE 23:36:56 85° NNE
YAOGAN 1 2.4 23:33:53 10° SSE 23:38:10 72° ENE 23:38:56 57° NNE
Spot 2 4.3 23:33:33 10° SSE 23:38:26 66° ENE 23:42:45 14° N
CZ-4C R/B 4.2 23:32:25 10° N 23:36:22 24° NNE 23:36:22 24° NNE
Okean O Rocket 3.4 23:44:49 10° SSW 23:48:44 31° W 23:52:39 10° NW
Meteor 1-19 Rocket 4.3 23:43:12 10° S 23:49:07 63° E 23:49:48 58° ENE
Cosmos 773 Rocket 3.9 23:46:57 10° SSW 23:52:14 85° WNW 23:53:12 61° N
Ariane H10 4.3 23:53:37 10° SW 23:55:57 19° S 23:55:57 19° S
